When you browse on this site, cookies collect data to enhance your experience and personalize the content and advertising you see.
Visit our Privacy Policy to learn more. By continuing to use the site, you agree to this use of cookies and data.
  • In Romania
  • List of Countries
  • For 7 days
  • Water Temperature
  • Weather Map
  • Weather Widgets
  • user-avatar
    Login

    Hourly Weather Baia-Sprie

    Today, 27 May, Wednesday

    Time Temperature Precipitation Wind Pressure Humidity
    00:00 +8°C° 0 mm 1 mps 715 mmHg 88%
    01:00 +8°C° 0 mm 1 mps 715 mmHg 89%
    02:00 +7°C° 0 mm 1 mps 715 mmHg 90%
    03:00 +7°C° 0 mm 1 mps 715 mmHg 91%
    04:00 +7°C° 0 mm 1 mps 715 mmHg 91%
    05:00 +7°C° 0 mm 1 mps 715 mmHg 91%
    06:00 +8°C° 0 mm 1 mps 716 mmHg 88%
    07:00 +10°C° 0 mm 1 mps 716 mmHg 84%
    08:00 +11°C° 0 mm 1 mps 716 mmHg 81%
    09:00 +12°C° 0.2 mm 2 mps 716 mmHg 78%
    10:00 +12°C° 0.2 mm 2 mps 717 mmHg 76%
    11:00 +12°C° 0.2 mm 3 mps 717 mmHg 74%
    12:00 +13°C° 0.1 mm 3 mps 716 mmHg 70%
    13:00 +14°C° 0.1 mm 3 mps 716 mmHg 65%
    14:00 +14°C° 0.1 mm 3 mps 716 mmHg 61%
    15:00 +14°C° 0.2 mm 3 mps 716 mmHg 66%
    16:00 +14°C° 0.2 mm 3 mps 715 mmHg 71%
    17:00 +13°C° 0.2 mm 3 mps 715 mmHg 75%
    18:00 +12°C° 0.1 mm 3 mps 715 mmHg 80%
    19:00 +12°C° 0.1 mm 2 mps 715 mmHg 84%
    20:00 +10°C° 0.1 mm 2 mps 715 mmHg 89%
    21:00 +9°C° 0 mm 2 mps 715 mmHg 89%
    22:00 +9°C° 0 mm 1 mps 715 mmHg 89%
    23:00 +9°C° 0 mm 1 mps 715 mmHg 89%

    Tomorrow, 28 May, Thursday

    Time Temperature Precipitation Wind Pressure Humidity
    00:00 +8°C° 0 mm 1 mps 715 mmHg 89%
    01:00 +8°C° 0 mm 1 mps 714 mmHg 89%
    02:00 +7°C° 0 mm 1 mps 714 mmHg 89%
    03:00 +7°C° 0 mm 1 mps 714 mmHg 89%
    04:00 +7°C° 0 mm 1 mps 714 mmHg 89%
    05:00 +8°C° 0 mm 1 mps 713 mmHg 89%
    06:00 +9°C° 0 mm 1 mps 713 mmHg 85%
    07:00 +10°C° 0 mm 1 mps 713 mmHg 81%
    08:00 +12°C° 0 mm 1 mps 713 mmHg 77%
    09:00 +13°C° 0.5 mm 1 mps 713 mmHg 75%
    10:00 +14°C° 0.5 mm 2 mps 713 mmHg 74%
    11:00 +15°C° 0.5 mm 2 mps 713 mmHg 72%
    12:00 +15°C° 0.8 mm 2 mps 712 mmHg 73%
    13:00 +14°C° 0.8 mm 3 mps 711 mmHg 74%
    14:00 +14°C° 0.8 mm 3 mps 711 mmHg 75%
    15:00 +14°C° 0.5 mm 3 mps 711 mmHg 76%
    16:00 +14°C° 0.5 mm 3 mps 710 mmHg 76%
    17:00 +14°C° 0.5 mm 3 mps 710 mmHg 76%
    18:00 +13°C° 0.2 mm 3 mps 710 mmHg 80%
    19:00 +13°C° 0.2 mm 2 mps 710 mmHg 83%
    20:00 +10°C° 0.2 mm 2 mps 710 mmHg 86%
    21:00 +10°C° 0 mm 2 mps 710 mmHg 88%
    22:00 +9°C° 0 mm 2 mps 710 mmHg 89%
    23:00 +9°C° 0 mm 1 mps 710 mmHg 90%

    Day after tomorrow, 29 May, Friday

    Time Temperature Precipitation Wind Pressure Humidity
    00:00 +8°C° 0 mm 1 mps 710 mmHg 91%
    01:00 +8°C° 0 mm 1 mps 710 mmHg 92%
    02:00 +7°C° 0 mm 1 mps 709 mmHg 93%
    03:00 +7°C° 0 mm 1 mps 709 mmHg 93%
    04:00 +7°C° 0 mm 1 mps 709 mmHg 94%
    05:00 +7°C° 0 mm 1 mps 709 mmHg 95%
    06:00 +9°C° 0 mm 1 mps 710 mmHg 91%
    07:00 +10°C° 0 mm 1 mps 710 mmHg 88%
    08:00 +12°C° 0 mm 1 mps 710 mmHg 85%
    09:00 +13°C° 0.2 mm 2 mps 710 mmHg 82%
    10:00 +13°C° 0.2 mm 2 mps 710 mmHg 80%
    11:00 +13°C° 0.2 mm 3 mps 710 mmHg 78%
    12:00 +14°C° 0.6 mm 3 mps 710 mmHg 76%
    13:00 +14°C° 0.6 mm 4 mps 710 mmHg 75%
    14:00 +15°C° 0.6 mm 4 mps 710 mmHg 73%
    15:00 +15°C° 0.3 mm 4 mps 710 mmHg 73%
    16:00 +14°C° 0.3 mm 4 mps 710 mmHg 73%
    17:00 +14°C° 0.3 mm 4 mps 710 mmHg 72%
    18:00 +13°C° 0.1 mm 3 mps 709 mmHg 77%
    19:00 +12°C° 0.1 mm 2 mps 709 mmHg 81%
    20:00 +10°C° 0.1 mm 2 mps 709 mmHg 86%
    21:00 +10°C° 0 mm 1 mps 709 mmHg 87%
    22:00 +9°C° 0 mm 1 mps 709 mmHg 89%
    23:00 +8°C° 0 mm 1 mps 709 mmHg 90%

    30 May, Saturday

    Time Temperature Precipitation Wind Pressure Humidity
    00:00 +8°C° 0 mm 1 mps 709 mmHg 91%
    01:00 +8°C° 0 mm 1 mps 709 mmHg 92%
    02:00 +8°C° 0 mm 1 mps 709 mmHg 93%
    03:00 +7°C° 0 mm 1 mps 709 mmHg 93%
    04:00 +6°C° 0 mm 0 mps 709 mmHg 94%
    05:00 +6°C° 0 mm 0 mps 709 mmHg 94%
    06:00 +8°C° 0 mm 1 mps 709 mmHg 90%
    07:00 +10°C° 0 mm 1 mps 709 mmHg 86%
    08:00 +11°C° 0 mm 1 mps 710 mmHg 82%
    09:00 +12°C° 0.1 mm 2 mps 710 mmHg 77%
    10:00 +13°C° 0.1 mm 2 mps 710 mmHg 72%
    11:00 +13°C° 0.1 mm 3 mps 710 mmHg 67%
    12:00 +14°C° 0.1 mm 4 mps 710 mmHg 65%
    13:00 +14°C° 0.1 mm 4 mps 710 mmHg 64%
    14:00 +15°C° 0.1 mm 5 mps 710 mmHg 63%
    15:00 +14°C° 0 mm 5 mps 709 mmHg 63%
    16:00 +14°C° 0 mm 4 mps 709 mmHg 63%
    17:00 +14°C° 0 mm 3 mps 709 mmHg 64%
    18:00 +13°C° 0 mm 2 mps 709 mmHg 71%
    19:00 +10°C° 0 mm 2 mps 709 mmHg 78%
    20:00 +10°C° 0 mm 1 mps 709 mmHg 86%
    21:00 +9°C° 0 mm 1 mps 709 mmHg 87%
    22:00 +7°C° 0 mm 0 mps 709 mmHg 88%
    23:00 +6°C° 0 mm 0 mps 709 mmHg 90%

    31 May, Sunday

    Time Temperature Precipitation Wind Pressure Humidity
    00:00 +6°C° 0 mm 0 mps 709 mmHg 90%
    01:00 +6°C° 0 mm 0 mps 709 mmHg 90%
    02:00 +6°C° 0 mm 0 mps 709 mmHg 90%
    03:00 +6°C° 0 mm 0 mps 709 mmHg 90%
    04:00 +6°C° 0 mm 0 mps 708 mmHg 90%
    05:00 +6°C° 0 mm 0 mps 708 mmHg 90%
    06:00 +7°C° 0 mm 0 mps 708 mmHg 89%
    07:00 +8°C° 0 mm 0 mps 708 mmHg 87%
    08:00 +9°C° 0 mm 0 mps 709 mmHg 85%
    09:00 +11°C° 0.1 mm 1 mps 709 mmHg 82%
    10:00 +12°C° 0.1 mm 2 mps 709 mmHg 79%
    11:00 +13°C° 0.1 mm 2 mps 709 mmHg 75%
    12:00 +14°C° 0.3 mm 2 mps 709 mmHg 74%
    13:00 +13°C° 0.3 mm 3 mps 709 mmHg 73%
    14:00 +14°C° 0.3 mm 3 mps 709 mmHg 71%
    15:00 +14°C° 0.2 mm 3 mps 708 mmHg 74%
    16:00 +13°C° 0.2 mm 3 mps 708 mmHg 76%
    17:00 +13°C° 0.2 mm 3 mps 708 mmHg 78%
    18:00 +13°C° 0.1 mm 2 mps 708 mmHg 82%
    19:00 +12°C° 0.1 mm 2 mps 707 mmHg 87%
    20:00 +11°C° 0.1 mm 1 mps 707 mmHg 92%
    21:00 +11°C° 0.1 mm 1 mps 707 mmHg 93%
    22:00 +10°C° 0.1 mm 1 mps 707 mmHg 94%
    23:00 +10°C° 0.1 mm 1 mps 707 mmHg 95%

    1 June, Monday

    Time Temperature Precipitation Wind Pressure Humidity
    00:00 +10°C° 0.3 mm 1 mps 707 mmHg 96%
    01:00 +10°C° 0.3 mm 1 mps 707 mmHg 97%
    02:00 +9°C° 0.3 mm 2 mps 707 mmHg 98%
    03:00 +9°C° 0.6 mm 2 mps 706 mmHg 98%
    04:00 +9°C° 0.6 mm 2 mps 706 mmHg 98%
    05:00 +9°C° 0.6 mm 2 mps 706 mmHg 99%
    06:00 +9°C° 0.2 mm 2 mps 706 mmHg 98%
    07:00 +9°C° 0.2 mm 2 mps 706 mmHg 98%
    08:00 +10°C° 0.2 mm 2 mps 706 mmHg 98%
    09:00 +10°C° 0.1 mm 2 mps 706 mmHg 97%
    10:00 +12°C° 0.1 mm 2 mps 706 mmHg 96%
    11:00 +12°C° 0.1 mm 2 mps 707 mmHg 95%
    12:00 +13°C° 0.2 mm 2 mps 707 mmHg 89%
    13:00 +13°C° 0.2 mm 3 mps 707 mmHg 82%
    14:00 +14°C° 0.2 mm 3 mps 707 mmHg 76%
    15:00 +14°C° 0.2 mm 3 mps 707 mmHg 76%
    16:00 +14°C° 0.2 mm 3 mps 707 mmHg 75%
    17:00 +14°C° 0.2 mm 3 mps 707 mmHg 74%
    18:00 +13°C° 0 mm 3 mps 707 mmHg 79%
    19:00 +13°C° 0 mm 2 mps 707 mmHg 84%
    20:00 +10°C° 0 mm 2 mps 707 mmHg 89%
    21:00 +11°C° 0 mm 1 mps 707 mmHg 91%
    22:00 +10°C° 0 mm 1 mps 708 mmHg 92%
    23:00 +9°C° 0 mm 1 mps 708 mmHg 93%
    Show more